• In Lithuania
  • List of Countries
  • For 7 days
  • Water Temperature
  • Satellite Maps
  • Weather Map
  • Weather Widgets
  • user-avatar
    Login

    Hourly Weather Baden-Baden

    Today, 25 February, Sunday

    Time Temperature Precipitation Wind Pressure Humidity
    00:00 -8°C° 0 mm 6 mps 732 mmHg 56%
    01:00 -8°C° 0 mm 4 mps 732 mmHg 61%
    02:00 -8°C° 0 mm 5 mps 732 mmHg 60%
    03:00 -10°C° 0 mm 5 mps 732 mmHg 59%
    04:00 -10°C° 0 mm 6 mps 732 mmHg 58%
    05:00 -10°C° 0 mm 6 mps 732 mmHg 57%
    06:00 -11°C° 0 mm 6 mps 733 mmHg 56%
    07:00 -11°C° 0 mm 6 mps 733 mmHg 55%
    08:00 -10°C° 0 mm 6 mps 733 mmHg 51%
    09:00 -10°C° 0 mm 6 mps 733 mmHg 47%
    10:00 -9°C° 0 mm 6 mps 733 mmHg 43%
    11:00 -8°C° 0 mm 6 mps 733 mmHg 40%
    12:00 -6°C° 0 mm 6 mps 733 mmHg 37%
    13:00 -5°C° 0 mm 6 mps 733 mmHg 34%
    14:00 -5°C° 0 mm 6 mps 733 mmHg 34%
    15:00 -5°C° 0 mm 6 mps 733 mmHg 34%
    16:00 -5°C° 0 mm 6 mps 733 mmHg 33%
    17:00 -6°C° 0 mm 5 mps 733 mmHg 36%
    18:00 -7°C° 0 mm 4 mps 733 mmHg 39%
    19:00 -8°C° 0 mm 4 mps 733 mmHg 41%
    20:00 -8°C° 0 mm 4 mps 733 mmHg 42%
    21:00 -9°C° 0 mm 4 mps 733 mmHg 43%
    22:00 -9°C° 0 mm 4 mps 733 mmHg 43%
    23:00 -9°C° 0 mm 4 mps 733 mmHg 44%

    Tomorrow, 26 February, Monday

    Time Temperature Precipitation Wind Pressure Humidity
    00:00 -10°C° 0 mm 4 mps 733 mmHg 45%
    01:00 -10°C° 0 mm 4 mps 733 mmHg 46%
    02:00 -10°C° 0 mm 4 mps 733 mmHg 46%
    03:00 -10°C° 0 mm 4 mps 733 mmHg 46%
    04:00 -11°C° 0 mm 4 mps 733 mmHg 46%
    05:00 -11°C° 0 mm 4 mps 733 mmHg 47%
    06:00 -11°C° 0 mm 4 mps 733 mmHg 48%
    07:00 -12°C° 0 mm 4 mps 733 mmHg 49%
    08:00 -12°C° 0 mm 5 mps 734 mmHg 46%
    09:00 -11°C° 0 mm 5 mps 734 mmHg 44%
    10:00 -11°C° 0 mm 6 mps 734 mmHg 42%
    11:00 -10°C° 0 mm 6 mps 734 mmHg 39%
    12:00 -9°C° 0 mm 6 mps 733 mmHg 37%
    13:00 -8°C° 0 mm 6 mps 733 mmHg 35%
    14:00 -8°C° 0 mm 6 mps 733 mmHg 35%
    15:00 -8°C° 0 mm 6 mps 733 mmHg 35%
    16:00 -8°C° 0 mm 6 mps 732 mmHg 35%
    17:00 -8°C° 0 mm 5 mps 732 mmHg 38%
    18:00 -9°C° 0 mm 4 mps 732 mmHg 41%
    19:00 -10°C° 0 mm 4 mps 733 mmHg 45%
    20:00 -10°C° 0 mm 4 mps 732 mmHg 45%
    21:00 -10°C° 0 mm 4 mps 732 mmHg 46%
    22:00 -10°C° 0 mm 4 mps 732 mmHg 47%
    23:00 -11°C° 0 mm 4 mps 732 mmHg 48%

    Day after tomorrow, 27 February, Tuesday

    Time Temperature Precipitation Wind Pressure Humidity
    00:00 -11°C° 0 mm 4 mps 732 mmHg 49%
    01:00 -11°C° 0 mm 4 mps 731 mmHg 50%
    02:00 -11°C° 0 mm 4 mps 731 mmHg 51%
    03:00 -12°C° 0 mm 3 mps 731 mmHg 52%
    04:00 -12°C° 0 mm 3 mps 731 mmHg 52%
    05:00 -12°C° 0 mm 3 mps 731 mmHg 53%
    06:00 -12°C° 0 mm 3 mps 731 mmHg 53%
    07:00 -13°C° 0 mm 3 mps 730 mmHg 54%
    08:00 -12°C° 0 mm 3 mps 730 mmHg 51%
    09:00 -11°C° 0 mm 4 mps 730 mmHg 47%
    10:00 -11°C° 0 mm 4 mps 730 mmHg 44%
    11:00 -10°C° 0 mm 4 mps 730 mmHg 41%
    12:00 -9°C° 0 mm 4 mps 730 mmHg 39%
    13:00 -8°C° 0 mm 4 mps 730 mmHg 36%
    14:00 -8°C° 0 mm 4 mps 729 mmHg 36%
    15:00 -8°C° 0 mm 4 mps 729 mmHg 35%
    16:00 -8°C° 0 mm 4 mps 729 mmHg 35%
    17:00 -8°C° 0 mm 3 mps 729 mmHg 38%
    18:00 -8°C° 0 mm 3 mps 729 mmHg 42%
    19:00 -8°C° 0 mm 2 mps 729 mmHg 45%
    20:00 -8°C° 0 mm 2 mps 729 mmHg 46%
    21:00 -9°C° 0 mm 2 mps 729 mmHg 47%
    22:00 -9°C° 0 mm 2 mps 729 mmHg 49%
    23:00 -9°C° 0 mm 2 mps 729 mmHg 50%

    28 February, Wednesday

    Time Temperature Precipitation Wind Pressure Humidity
    00:00 -9°C° 0 mm 2 mps 729 mmHg 52%
    01:00 -10°C° 0 mm 2 mps 729 mmHg 54%
    02:00 -10°C° 0 mm 2 mps 729 mmHg 56%
    03:00 -10°C° 0 mm 2 mps 729 mmHg 58%
    04:00 -10°C° 0 mm 2 mps 729 mmHg 60%
    05:00 -10°C° 0 mm 2 mps 729 mmHg 62%
    06:00 -13°C° 0 mm 3 mps 730 mmHg 63%
    07:00 -13°C° 0 mm 3 mps 730 mmHg 65%
    08:00 -12°C° 0 mm 3 mps 730 mmHg 60%
    09:00 -11°C° 0 mm 4 mps 730 mmHg 55%
    10:00 -11°C° 0 mm 5 mps 730 mmHg 49%
    11:00 -10°C° 0 mm 5 mps 730 mmHg 46%
    12:00 -7°C° 0 mm 5 mps 730 mmHg 42%
    13:00 -6°C° 0 mm 5 mps 729 mmHg 39%
    14:00 -6°C° 0 mm 5 mps 729 mmHg 38%
    15:00 -6°C° 0 mm 5 mps 728 mmHg 38%
    16:00 -5°C° 0 mm 5 mps 728 mmHg 38%
    17:00 -6°C° 0 mm 5 mps 728 mmHg 41%
    18:00 -7°C° 0 mm 5 mps 727 mmHg 45%
    19:00 -8°C° 0 mm 5 mps 727 mmHg 48%
    20:00 -8°C° 0 mm 5 mps 727 mmHg 49%
    21:00 -8°C° 0 mm 5 mps 727 mmHg 50%
    22:00 -10°C° 0 mm 5 mps 727 mmHg 51%
    23:00 -10°C° 0 mm 5 mps 726 mmHg 52%

    1 March, Thursday

    Time Temperature Precipitation Wind Pressure Humidity
    00:00 -10°C° 0 mm 5 mps 726 mmHg 54%
    01:00 -10°C° 0 mm 5 mps 725 mmHg 56%
    02:00 -10°C° 0 mm 5 mps 725 mmHg 57%
    03:00 -10°C° 0 mm 5 mps 724 mmHg 58%
    04:00 -9°C° 0 mm 4 mps 723 mmHg 59%
    05:00 -9°C° 0 mm 4 mps 723 mmHg 59%
    06:00 -9°C° 0 mm 4 mps 722 mmHg 59%
    07:00 -9°C° 0 mm 4 mps 722 mmHg 59%
    08:00 -9°C° 0 mm 4 mps 722 mmHg 57%
    09:00 -8°C° 0 mm 4 mps 722 mmHg 55%
    10:00 -8°C° 0 mm 4 mps 721 mmHg 53%
    11:00 -7°C° 0.1 mm 4 mps 721 mmHg 52%
    12:00 -5°C° 0.1 mm 4 mps 721 mmHg 51%
    13:00 -4°C° 0.1 mm 4 mps 721 mmHg 51%
    14:00 -4°C° 0.1 mm 4 mps 721 mmHg 52%
    15:00 -4°C° 0.1 mm 4 mps 720 mmHg 54%
    16:00 -3°C° 0.1 mm 4 mps 720 mmHg 56%
    17:00 -4°C° 0 mm 4 mps 720 mmHg 58%
    18:00 -4°C° 0 mm 4 mps 720 mmHg 61%
    19:00 -4°C° 0 mm 3 mps 720 mmHg 63%
    20:00 -5°C° 0 mm 3 mps 720 mmHg 64%
    21:00 -5°C° 0 mm 3 mps 719 mmHg 65%
    22:00 -5°C° 0 mm 3 mps 719 mmHg 65%
    23:00 -5°C° 0 mm 3 mps 719 mmHg 67%

    2 March, Friday

    Time Temperature Precipitation Wind Pressure Humidity
    00:00 -6°C° 0 mm 3 mps 719 mmHg 68%
    01:00 -6°C° 0 mm 3 mps 718 mmHg 69%
    02:00 -6°C° 0 mm 3 mps 718 mmHg 70%
    03:00 -6°C° 0 mm 3 mps 718 mmHg 71%
    04:00 -6°C° 0 mm 3 mps 717 mmHg 73%
    05:00 -6°C° 0 mm 3 mps 717 mmHg 73%
    06:00 -6°C° 0 mm 3 mps 717 mmHg 74%
    07:00 -6°C° 0 mm 3 mps 717 mmHg 74%
    08:00 -4°C° 0 mm 2 mps 717 mmHg 69%
    09:00 -2°C° 0 mm 2 mps 717 mmHg 65%
    10:00 -1°C° 0 mm 2 mps 718 mmHg 60%
    11:00 +2°C° 0.1 mm 2 mps 718 mmHg 59%
    12:00 +4°C° 0.1 mm 1 mps 718 mmHg 58%
    13:00 +5°C° 0.1 mm 1 mps 718 mmHg 57%
    14:00 +5°C° 0.1 mm 1 mps 718 mmHg 61%
    15:00 +5°C° 0.1 mm 1 mps 718 mmHg 65%
    16:00 +5°C° 0.1 mm 1 mps 718 mmHg 68%
    17:00 +4°C° 0 mm 1 mps 718 mmHg 73%
    18:00 +3°C° 0 mm 1 mps 718 mmHg 77%
    19:00 +2°C° 0 mm 1 mps 718 mmHg 82%
    20:00 +2°C° 0 mm 1 mps 718 mmHg 84%
    21:00 +2°C° 0 mm 1 mps 718 mmHg 86%
    22:00 +2°C° 0 mm 1 mps 718 mmHg 88%
    23:00 +2°C° 0 mm 1 mps 718 mmHg 89%
    Show more